STARLINK-32509, 62042

Orbit data source: Space-Track

STARLINK-32509, 62042 is a payload satellite owned by SpaceX/Seattle (US) in LEO that was launched on Thu, 21 Nov 2024 UTC via an FALCON 9 launch vehicle from the Air Force Eastern Test Range (AFETR). Payloads include a variety of satellites, spacecraft, and rockets equipped with specific instruments for various scientific and technological missions. These include communications satellites like Starlink; space stations such as the ISS; scientific satellites like the Hubble; Earth observation satellites from companies like Planet Labs, Umbra, and HawkEye 360; GPS; miniature CubeSats for education and research; and military/defense satellites.

Loading next visibility...
STARLINK-32509 details
Identifier
62042, 2024-216L
Orbit
LEO
Last TLE update10 hours ago
Origin
Flag of USSpaceX/Seattle (US)
ManufacturerSpaceX/Seattle
MissionOperational spacecraft
Bus & MotorSTARLINK V2M, Unknown motor
Mass730 kg wet, ~700 kg dry
Launch date (UTC)
2024-11-21 (1 month ago)
Launch vehicle
FALCON 9
Launch site
Air Force Eastern Test Range (AFETR)
Object type
Payload
Rocket body
Debris
Shape & HBRUnknown
Radar Cross SectionLarge (>1 m²)

Expand to show TLE details & history

TLE from 10 hours ago
0 STARLINK-32509
1 62042U 24216L   24361.03874584  .00000003  00000-0  73423-5 0  9991
2 62042  43.0027 234.8812 0001370 256.9913 103.0791 15.40696201  6513
Epoch: 2024-12-26T00:55Z
Definitive object data (Epoch: 2024-12-26T00:55:47.64Z)
Latitude
Longitude125.90883°
Altitude444.039 km
Speed7.647 km/s
True Right ascension15h 39m 31s
True Declination0° 00' 00"
Sunlit
Object was in daylight at TLE epoch
Visualization TLE readout
Latitude42.00672°
Longitude-130.24865°
Altitude447.807 km
Speed7.649 km/s
Apparent Right ascension22h 19m 30s
Apparent Declination2° 43' 55"
Sunlit
Object is in daylight
Visualization observer readout
Local Sidereal Time10:03:34
Azimuth354.134° N
Elevation-47.196°
Doppler factor1
Orbital elements
Apogee altitude446.944 km
Perigee altitude445.074 km
Semi-major axis6,824.146 km
Eccentricity0.000137
Inclination43.0027°
RAAN234.8812°
Arg. of periapsis256.9913°
True anomaly103.09439°
Mean anomaly103.0791°
Eccentric anomaly103.08675°
Mean motion3.85009 °/min
BSTAR0.0000073423
Orbital period93.5 mins
Loading maneuver chart data...
Loading historical data...
Loading historical data...
Loading historical data...
Loading historical data...
Loading historical data...
Loading historical data...
Loading historical data...

STARLINK-32509 Visibility forecast

Observer location: undefined°, undefined

Span
Click to sort rows by Start time (UTC) header in descending order
Start Az.
Max El. time (UTC)
Max El. Az.
Max El.
End time (UTC)
End Az.
5 mins2024-12-26 19:51:20.449Z238.099° WSW2024-12-26 19:53:20.449Z144.891° SSE43.45°2024-12-26 19:56:20.449Z74.736° E
5 mins2024-12-26 21:29:20.449Z286.032° WNW2024-12-26 21:31:20.449Z348.038° N37.692°2024-12-26 21:34:20.449Z70.495° E
5 mins2024-12-26 23:07:20.449Z292.813° NW2024-12-26 23:09:20.449Z328.583° NNW40.637°2024-12-26 23:12:20.449Z94.424° ESE
4 mins2024-12-27 00:46:20.449Z254.037° W2024-12-27 00:47:20.449Z224.525° SW28.651°2024-12-27 00:50:20.449Z147.763° SSE
|